This is the latest recevied weather packets stored in our database for station/object OE3AOG. If no packets are shown the sender has not sent any weather packets the latest 10 day(s).
| Time | Temp. | Humidity | Pressure | Rain* | Wind** | Luminosity | Snow |
|---|---|---|---|---|---|---|---|
| 1777623924 | 15.56° C | 36% | 1027.8 hPa | 0 mm | - | 404 W/m² | - |
| 1777623317 | 15° C | 36% | 1027.7 hPa | 0 mm | - | 339 W/m² | - |
| 1777622725 | 15° C | 35% | 1027.8 hPa | 0 mm | - | 470 W/m² | - |
| 1777622117 | 15.56° C | 35% | 1027.7 hPa | 0 mm | - | 592 W/m² | - |
| 1777620916 | 15° C | 35% | 1027.9 hPa | 0 mm | - | 463 W/m² | - |
| 1777620326 | 14.44° C | 36% | 1027.8 hPa | 0 mm | - | 433 W/m² | - |
| 1777619717 | 15° C | 35% | 1027.7 hPa | 0 mm | - | 374 W/m² | - |
| 1777619125 | 15° C | 36% | 1027.6 hPa | 0 mm | - | 349 W/m² | - |
| 1777618518 | 14.44° C | 36% | 1027.6 hPa | 0 mm | - | 325 W/m² | - |
| 1777617924 | 13.89° C | 37% | 1027.6 hPa | 0 mm | - | 299 W/m² | - |
| 1777617317 | 13.33° C | 37% | 1027.6 hPa | 0 mm | - | 275 W/m² | - |
| 1777616724 | 12.22° C | 38% | 1027.5 hPa | 0 mm | - | 214 W/m² | - |
| 1777616125 | 11.11° C | 39% | 1027.5 hPa | 0 mm | - | 229 W/m² | - |
| 1777615526 | 11.11° C | 39% | 1027.6 hPa | 0 mm | - | 206 W/m² | - |
| 1777614917 | 11.11° C | 40% | 1027.5 hPa | 0 mm | - | 182 W/m² | - |
| 1777613717 | 10.56° C | 42% | 1027.4 hPa | 0 mm | - | 112 W/m² | - |
| 1777613125 | 10° C | 42% | 1027.4 hPa | 0 mm | - | 99 W/m² | - |
| 1777612525 | 8.89° C | 42% | 1027.4 hPa | 0 mm | - | 100 W/m² | - |
| 1777611917 | 8.33° C | 42% | 1027.3 hPa | 0 mm | - | 86 W/m² | - |
| 1777611324 | 7.78° C | 43% | 1027.1 hPa | 0 mm | - | 70 W/m² | - |
| 1777610717 | 7.78° C | 43% | 1027 hPa | 0 mm | - | 57 W/m² | - |
| 1777610125 | 7.22° C | 45% | 1027 hPa | 0 mm | - | 45 W/m² | - |
| 1777609517 | 6.67° C | 45% | 1026.9 hPa | 0 mm | - | 25 W/m² | - |
| 1777608925 | 6.67° C | 45% | 1026.8 hPa | 0 mm | - | 20 W/m² | - |
| 1777608317 | 6.11° C | 45% | 1026.8 hPa | 0 mm | - | 15 W/m² | - |
* Rain latest hour (hover to see other rain measurements)
** Current wind speed in m/s (hover to see current wind gust speed)